Location: Newark
(43.2825°N, 1.0664°E)
Time: 01:57:19
(UTC+00:00)

ISS - Visible Passes

Search period start: 15 November 2019 00:00
Search period end: 25 November 2019 00:00
Orbit: 412 x 421 km, 51.6° (Epoch: 15 November)

Date Brightness Start Highest point End Pass type
(mag) Time Alt. Az. Time Alt. Az. Time Alt. Az.
20 Nov -0.7 19:01:46 10° SW 19:02:06 12° SW 19:02:06 12° SW visible
21 Nov -2.5 18:13:41 10° SSW 18:16:01 29° SSE 18:16:01 29° SSE visible
22 Nov -2.0 17:25:56 10° S 17:28:26 20° SE 17:29:50 16° ESE visible
22 Nov -1.1 19:01:36 10° WSW 19:02:46 20° WSW 19:02:46 20° WSW visible
23 Nov -3.9 18:13:06 10° SW 18:16:27 88° SE 18:16:29 87° ESE visible
24 Nov -3.4 17:24:47 10° SW 17:28:02 52° SE 17:30:08 20° ENE visible
24 Nov -1.0 19:01:53 10° W 19:03:03 18° WNW 19:03:03 18° WNW visible
